Theta_e
330 330 329 327 327 328 326 326 325 325 326 325 325 325 324 324 324 324 325 332 328 329 331 332 336 340 346 349 349 348 349 347 348 349 348 350 348 350 350 349 349 348 347
331 329 329 328 327 328 327 326 325 324 324 324 324 324 324 324 324 325 325 326 333 329 330 331 331 337 341 344 345 346 347 347 349 350 349 347 347 349 349 349 348 347 346
334 334 330 328 327 328 330 328 326 326 324 324 324 324 324 325 324 324 326 326 327 331 329 330 331 332 337 340 342 344 344 346 345 346 348 348 346 348 348 347 347 347 347
337 333 329 329 329 329 327 326 325 324 324 324 324 324 324 324 323 324 325 325 326 325 331 330 330 332 333 336 337 341 342 345 345 346 346 347 347 346 347 347 346 347 348
334 332 330 330 332 329 327 326 325 325 323 323 323 323 323 323 322 322 324 325 327 327 325 333 330 329 331 332 336 337 341 342 342 343 344 345 345 346 346 346 346 346 346
333 334 332 332 332 329 327 326 327 326 324 323 321 322 322 323 322 323 324 325 326 327 327 328 329 328 330 330 332 336 337 339 341 341 343 342 342 343 344 345 345 345 346
333 334 331 330 331 330 329 328 327 326 324 325 320 320 320 322 323 323 325 324 325 326 326 327 328 326 328 329 329 332 336 336 338 341 342 341 342 342 342 343 343 343 344
330 330 331 327 329 327 328 329 329 325 322 324 319 318 312 316 319 323 323 323 324 325 325 325 326 328 329 328 330 330 330 335 335 339 340 339 341 342 342 342 343 342 342
326 326 326 326 327 328 324 329 325 326 322 323 325 318 311 309 314 319 322 322 324 324 324 325 325 326 327 327 329 329 331 331 334 336 338 339 340 339 339 340 341 341 341
326 325 325 325 326 324 324 325 329 327 327 321 324 321 322 319 312 310 320 321 323 323 325 324 324 325 327 326 327 328 330 329 331 333 337 338 336 335 337 339 340 341 342
325 324 325 325 324 322 324 326 327 327 325 325 323 321 320 318 319 315 310 313 320 321 322 324 325 325 326 327 327 327 330 329 329 331 333 335 337 335 336 336 337 338 338
321 324 323 323 324 324 323 324 326 327 326 326 323 322 319 316 315 317 313 314 316 318 321 322 323 325 326 325 326 327 326 327 327 328 331 334 334 335 334 334 335 337 338
319 324 324 323 322 323 323 324 324 326 324 323 323 320 321 319 323 321 318 315 314 317 318 325 323 324 324 325 326 322 326 325 325 327 328 330 332 333 333 332 332 333 334
320 324 322 322 322 323 323 324 323 326 322 321 321 322 320 321 323 321 319 317 313 314 316 321 322 323 323 325 325 323 327 325 325 324 326 328 329 330 330 332 332 332 333
319 320 321 320 321 322 322 324 323 322 323 323 318 322 325 322 322 322 322 320 315 310 311 317 319 326 324 325 326 327 328 327 325 324 325 326 326 327 327 329 329 330 330
320 320 319 319 320 321 321 323 323 323 323 320 323 322 323 321 321 322 318 321 320 314 310 316 320 324 326 325 325 327 327 326 325 324 325 325 324 324 325 325 326 327 327
319 318 318 318 318 319 321 319 320 320 321 321 322 321 322 323 321 321 325 322 319 316 312 316 321 325 321 325 324 325 326 326 325 323 325 324 322 322 323 322 323 323 325
317 317 317 317 317 318 319 318 318 321 320 321 321 321 320 320 322 325 321 321 319 324 316 315 318 320 320 323 325 323 326 327 326 322 323 323 321 320 319 320 319 319 319
315 315 314 315 316 318 320 318 319 321 321 322 322 320 319 321 322 319 321 320 325 323 320 315 314 316 317 323 322 325 326 327 324 324 322 321 319 318 318 318 317 316 313
313 312 314 314 316 319 319 315 318 322 322 321 321 321 320 320 321 321 321 321 319 319 318 311 311 312 318 319 322 319 321 327 321 327 325 322 320 317 317 317 316 315 312
311 312 312 313 316 319 315 316 319 320 321 321 320 320 321 320 317 318 321 320 319 317 312 311 312 316 314 315 315 321 317 321 321 328 327 324 324 324 321 318 319 316 312
311 311 312 313 316 319 310 310 314 318 320 320 319 320 321 317 317 314 314 314 313 312 311 312 317 316 315 317 320 317 318 315 311 322 320 322 328 322 321 324 315 312 311
311 312 312 314 316 316 308 306 309 319 321 320 321 321 321 319 318 318 314 313 314 314 315 321 317 315 316 318 319 317 318 317 313 317 319 315 323 318 318 314 311 310 309
310 311 313 315 315 316 307 305 306 320 322 322 321 321 321 319 318 317 314 315 317 320 322 323 322 320 317 319 317 321 317 315 314 315 321 312 317 315 318 318 311 309 308
309 311 313 312 314 315 305 304 308 319 320 321 320 320 317 319 306 307 313 313 317 320 312 309 310 308 306 309 315 318 313 315 310 310 316 315 316 315 319 319 318 310 308
309 311 314 314 309 310 304 303 307 319 320 319 322 322 308 316 304 306 313 313 317 321 322 322 321 314 315 314 311 326 321 314 311 311 317 314 316 314 310 316 319 320 320
Wind_Speed
4 5 4 5 4 4 5 5 6 6 7 8 7 7 9 10 10 7 7 7 8 10 10 10 11 8 8 12 13 13 13 13 13 12 12 13 13 13 14 14 14 13 13
5 6 6 6 5 5 5 6 6 7 7 8 7 8 9 11 10 10 9 9 10 11 12 10 10 11 8 10 12 14 13 14 13 12 12 13 13 12 14 13 12 13 15
7 8 8 7 6 5 6 7 6 7 7 7 7 9 9 11 10 11 9 9 9 16 14 12 11 11 11 10 11 13 13 12 14 13 12 12 12 12 14 14 14 15 15
9 8 8 7 7 6 7 6 6 7 7 7 8 8 8 9 11 11 10 9 9 8 11 16 11 11 11 12 13 13 14 13 13 13 12 13 12 13 13 13 13 14 14
9 8 8 8 7 8 8 7 6 7 7 8 9 8 9 9 10 10 9 10 10 9 8 7 10 9 11 11 12 14 14 14 14 13 14 14 13 13 13 14 14 12 13
8 7 8 9 9 9 9 8 7 7 8 9 10 10 10 9 9 9 9 9 9 7 7 9 6 10 14 8 10 13 14 15 14 14 14 14 14 14 13 15 14 15 16
9 9 9 9 8 9 11 9 9 11 9 8 8 10 9 9 7 8 6 6 8 7 5 6 6 7 7 12 10 12 13 16 15 15 14 13 13 14 14 15 16 17 16
7 7 8 7 9 10 12 13 11 10 9 9 8 10 10 6 7 5 7 5 7 5 6 6 4 7 7 8 7 9 10 14 17 14 13 13 12 13 14 14 15 17 18
7 7 8 8 10 10 11 13 10 11 10 10 6 6 8 7 3 4 6 8 5 8 7 6 9 8 8 8 9 11 14 14 16 16 14 14 13 13 13 13 15 17 18
7 8 7 9 10 10 12 12 10 12 10 10 7 8 9 9 10 9 2 5 8 9 9 7 8 9 9 9 12 14 11 7 11 16 15 14 15 14 14 13 14 14 16
6 8 8 10 10 10 11 12 13 11 9 9 9 9 8 7 9 9 11 7 4 8 8 8 8 7 9 10 10 11 11 13 13 14 15 14 14 14 14 14 14 14 16
7 7 9 11 11 11 12 10 12 14 11 10 8 9 9 6 7 6 8 10 10 9 4 7 7 8 8 7 9 10 7 8 11 12 13 14 14 13 12 12 12 15 16
9 9 10 12 10 12 12 12 11 13 11 10 10 7 9 9 5 6 7 9 11 9 5 4 5 4 6 7 7 2 9 12 13 11 11 14 14 13 12 12 14 13 15
10 11 12 12 13 13 12 12 11 9 7 7 9 10 9 9 8 8 8 8 10 10 7 7 4 6 8 6 5 6 10 12 13 10 11 12 13 12 12 10 9 10 13
10 14 13 13 14 14 14 13 9 11 12 12 11 12 11 11 8 9 9 9 10 9 9 5 4 3 5 6 7 9 10 8 16 12 10 11 12 12 9 9 8 8 9
13 13 13 13 14 14 15 13 11 13 14 8 8 12 12 11 8 9 8 10 9 8 10 9 3 6 6 7 10 8 11 9 15 12 13 12 12 9 10 10 10 9 10
13 14 14 13 15 14 13 13 11 13 15 13 14 12 14 12 9 8 8 8 8 7 10 10 6 6 8 11 9 8 9 10 10 11 10 10 9 10 10 9 9 9 12
13 13 13 14 15 13 12 13 14 14 15 16 15 14 13 8 12 10 9 10 8 7 6 11 6 7 7 8 7 8 6 7 9 11 9 8 11 12 11 8 9 9 6
13 14 12 14 15 14 11 8 13 14 15 13 12 11 10 9 8 8 8 9 6 5 6 5 5 4 4 6 6 7 5 7 4 8 9 10 12 14 13 13 12 11 13
12 12 13 14 14 13 10 8 12 13 11 9 9 9 8 8 8 6 6 4 3 3 3 3 5 6 5 3 5 4 4 6 5 8 7 8 14 15 16 15 14 15 15
12 14 14 15 15 10 6 9 10 10 8 7 8 6 7 4 9 6 3 4 5 5 4 5 5 6 3 2 2 2 5 6 6 5 7 8 10 10 10 13 13 16 13
14 14 14 15 15 7 6 7 10 7 8 8 7 7 5 6 7 5 2 5 8 8 7 6 6 3 3 3 6 5 6 6 3 4 5 7 8 7 8 8 13 13 12
13 14 13 13 13 8 6 7 6 10 6 6 6 6 7 6 6 3 6 8 6 5 6 5 7 4 3 2 7 8 7 7 4 4 7 5 7 7 7 9 16 12 11
12 11 11 12 10 6 10 8 5 9 8 6 6 7 5 7 5 6 6 6 3 4 3 2 7 6 7 7 5 8 11 8 8 5 3 4 4 7 7 6 9 10 12
13 11 10 9 8 8 13 11 7 7 6 6 6 6 7 10 8 9 7 8 3 7 8 11 15 13 9 10 9 9 6 9 7 2 4 6 5 6 7 8 7 9 10
12 10 9 5 5 9 10 12 8 7 5 5 5 8 5 12 11 6 5 6 1 9 11 12 11 9 7 6 1 8 14 14 11 6 6 9 13 10 8 7 9 8 8
Wind_Direction
301 295 318 295 308 307 299 311 314 312 294 284 286 298 294 295 292 287 286 288 267 283 290 291 297 295 253 217 220 218 218 223 220 214 213 210 214 212 212 205 206 202 214
301 297 279 268 278 282 302 313 319 314 301 294 291 286 289 288 288 287 280 279 224 256 273 279 276 281 244 230 230 226 223 221 217 212 210 215 214 209 213 211 211 202 211
277 273 275 273 275 280 280 264 273 276 272 277 286 281 290 279 276 277 271 269 271 212 233 254 262 259 260 247 227 229 227 223 225 219 213 214 214 205 213 213 209 209 205
263 263 266 269 275 272 262 271 272 280 282 282 285 284 294 288 279 274 266 269 267 276 215 220 236 250 250 253 249 228 229 232 229 222 214 216 215 213 212 213 217 212 205
279 271 278 274 261 260 257 264 272 273 280 280 278 280 291 285 281 267 275 270 262 261 268 206 197 235 244 247 258 252 228 223 227 225 221 219 218 216 212 212 211 210 212
279 262 263 265 265 262 254 253 273 278 285 281 287 291 287 277 276 269 261 254 252 263 271 267 253 220 210 226 249 256 251 225 228 229 227 221 222 224 214 207 211 216 214
290 280 275 273 264 264 277 277 250 246 265 271 263 270 277 274 257 264 249 254 241 233 275 272 266 263 204 191 219 241 251 249 229 226 222 223 219 223 221 218 215 219 217
305 296 299 302 289 284 269 257 260 268 260 268 271 290 279 260 214 215 237 247 239 222 232 225 283 278 275 274 278 205 243 249 247 229 219 217 221 220 223 223 221 219 217
301 303 298 296 293 279 274 269 260 250 260 283 234 271 282 270 1 274 202 245 241 241 253 254 243 259 261 268 269 245 235 238 244 247 220 207 219 220 222 222 224 222 219
299 306 303 302 295 291 287 269 265 254 256 261 271 241 260 293 295 284 218 215 223 234 241 262 261 250 255 260 262 266 290 241 240 244 244 211 211 219 222 217 220 226 226
269 304 313 309 298 287 296 282 268 249 249 250 257 263 257 247 246 251 276 282 248 255 244 219 237 261 261 255 262 258 234 232 240 244 246 225 211 212 211 213 221 226 231
304 304 308 302 296 293 288 285 280 262 248 242 254 266 256 241 248 236 248 266 274 271 295 271 259 251 255 254 250 263 280 249 234 244 245 217 203 209 218 221 228 228 234
305 308 320 299 295 294 292 290 280 267 249 238 235 238 254 252 254 246 255 262 272 279 259 252 263 310 251 246 242 213 248 236 236 241 243 222 193 194 202 218 229 237 243
300 317 301 298 294 292 291 285 277 263 242 229 244 254 257 246 245 239 243 260 274 272 273 255 269 225 243 231 324 248 254 222 220 236 231 208 188 189 203 215 228 235 250
311 302 307 293 294 291 286 282 269 257 240 249 235 246 251 259 241 241 246 253 269 281 280 260 290 26 265 228 296 292 278 236 202 216 217 194 182 195 196 204 201 214 224
301 292 291 293 295 290 287 283 272 252 247 248 232 243 250 255 240 243 248 253 261 282 270 283 303 289 299 284 276 268 269 266 187 201 214 181 191 179 185 186 198 209 208
294 289 291 297 293 295 302 290 267 245 240 231 239 242 244 242 248 256 254 252 252 246 252 268 277 286 290 269 278 291 270 244 191 194 192 182 175 168 167 182 202 224 218
296 290 294 296 293 285 277 268 268 247 230 233 229 230 243 239 246 249 248 254 261 236 232 258 281 271 275 278 279 261 241 218 188 171 183 180 159 150 150 147 126 115 108
291 286 296 297 299 290 296 269 264 251 241 230 224 221 229 243 243 253 258 279 277 260 237 241 262 263 264 269 266 238 212 173 169 166 178 153 150 143 137 128 122 109 93
306 302 307 302 297 288 289 285 286 257 245 229 211 222 240 239 244 261 282 308 301 271 255 256 257 266 256 282 266 203 174 154 155 198 132 142 152 145 133 133 129 109 110
318 310 304 299 296 287 313 290 294 264 238 222 210 237 234 278 67 54 311 324 298 269 252 249 238 248 210 202 219 132 111 111 80 160 126 127 136 149 134 126 133 125 117
314 309 298 302 300 287 269 298 289 294 251 234 214 233 199 147 120 99 47 358 313 276 244 215 211 211 155 190 161 126 131 119 97 60 94 125 133 134 146 152 127 128 129
310 305 295 310 301 317 240 276 279 262 265 215 220 218 220 119 126 126 60 354 305 223 279 218 137 144 124 80 129 141 137 104 95 94 105 76 115 79 82 122 132 137 141
308 308 304 314 310 5 307 284 259 245 231 227 195 184 154 134 97 62 14 320 331 112 112 181 104 93 85 74 71 106 103 92 75 51 95 96 117 104 111 105 123 147 146
312 316 309 311 350 357 359 302 234 206 220 200 159 134 135 120 112 63 335 322 17 93 81 55 85 103 109 120 134 108 111 103 97 74 21 109 115 114 128 140 149 146 144
319 320 313 353 28 2 343 321 239 209 183 168 157 143 55 130 128 179 259 292 101 116 111 118 115 115 129 119 273 183 169 146 143 128 188 158 159 150 138 146 145 159 157